loading
|

STARLINK-11261, 60724

Orbit data source: Space-Track

STARLINK-11261, 60724 is a payload satellite owned by SpaceX/Seattle (US) in LEO that was launched on Wed, 28 Aug 2024 UTC via an FALCON 9 launch vehicle from the Air Force Eastern Test Range (AFETR). Payloads include a variety of satellites, spacecraft, and rockets equipped with specific instruments for various scientific and technological missions. These include communications satellites like Starlink; space stations such as the ISS; scientific satellites like the Hubble; Earth observation satellites from companies like Planet Labs, Umbra, and HawkEye 360; GPS; miniature CubeSats for education and research; and military/defense satellites.

Next visibility unknown
Next conjunction unknown
Loading greatness...
STARLINK-11261 details
Identifier
60724, 2024-152E
Orbit
LEO
Last TLE update22 hours ago
Origin
Flag of USSpaceX/Seattle (US)
ManufacturerSpaceX/Seattle
MissionOperational spacecraft
Bus & MotorSTARLINK V2M, Unknown motor
Mass750 kg wet, ~700 kg dry
Launch date (UTC)
2024-08-28 (2 months ago)
Launch vehicle
FALCON 9
Launch site
Air Force Eastern Test Range (AFETR)
Object type
Payload
Rocket body
Debris
Shape & HBRUnknown
Radar Cross SectionLarge (>1 m²)

Expand to show TLE details & history

TLE from 22 hours ago
0 STARLINK-11261
1 60724U 24152E   24287.72821524  .00009697  00000-0  84879-4 0  9998
2 60724  53.1599 120.1885 0000828 154.8007 205.3051 15.69687274  8426
Epoch: 2024-10-13T17:28Z
Definitive object data (Epoch: 2024-10-13T17:28:37.796Z)
Latitude-0.00007°
Longitude-164.73458°
Altitude361.211 km
Speed7.694 km/s
True Right ascension08h 00m 45s
True Declination0° 00' 00"
Sunlit
Object was in daylight at TLE epoch
Predictive object data (real-time)
Latitude8.80725°
Longitude4.09471°
Altitude359.39 km
Speed7.696 km/s
Apparent Right ascension20h 28m 54s
Apparent Declination-15° 48' 16"
Sunlit
Object is in daylight
Predictive observer data (real-time)
Local Sidereal Time10:09:25
Azimuth49.416° ENE
Elevation-57.446°
Doppler factor1
Orbital elements
Apogee360.61 km
Perigee359.495 km
Semi-major axis6,738.189 km
Eccentricity0.0000828
Inclination53.1599°
RAAN120.1885°
Arg. of periapsis154.8007°
True anomaly205.30104°
Mean anomaly205.3051°
Eccentric anomaly205.30307°
Mean motion3.92399 °/min
BSTAR0.000084879
Period91.74 mins
No data available

STARLINK-11261 Visibility forecast

Observer location: 39.9160978°, -105.1181434

STARLINK-11261 is not visible in the next 10 days
Span
Click to sort rows by Start time (UTC) header in descending order
Start Az.
Max El. time (UTC)
Max El. Az.
Max El.
End time (UTC)
End Az.